RPA4609 KLGA-KDCA

Flight info

Callsign RPA4609
Flight time N/A
Altitude 30000
Route BIGGY Q75 MXE CLIPR3
Aircraft E170/M-SDE3GILORVW/S

Departure

Time 2026-05-06 22:53
Airport LaGuardia Airport (KLGA)

Arrival

Time N/A
Airport Ronald Reagan Washington National Airport (KDCA)
Time Latitude Longitude Altitude Speed Heading
2026-05-06 22:47 40.77438 -73.87137 17 ft 0 kts 33°
2026-05-06 22:48 40.77445 -73.87131 17 ft 4 kts 33°
2026-05-06 22:49 40.77481 -73.87099 17 ft 9 kts 36°
2026-05-06 22:49 40.77544 -73.87045 17 ft 13 kts 32°
2026-05-06 22:49 40.77619 -73.86977 13 ft 10 kts 66°
2026-05-06 22:49 40.77588 -73.86881 11 ft 13 kts 124°
2026-05-06 22:50 40.77533 -73.86777 11 ft 15 kts 131°
2026-05-06 22:50 40.77470 -73.86659 10 ft 16 kts 122°
2026-05-06 22:50 40.77465 -73.86567 10 ft 10 kts 57°
2026-05-06 22:50 40.77468 -73.86491 10 ft 8 kts 122°
2026-05-06 22:51 40.77432 -73.86417 10 ft 11 kts 122°
2026-05-06 22:51 40.77386 -73.86324 10 ft 13 kts 123°
2026-05-06 22:51 40.77335 -73.86218 11 ft 14 kts 122°
2026-05-06 22:51 40.77276 -73.86100 10 ft 17 kts 127°
2026-05-06 22:52 40.77219 -73.85976 10 ft 16 kts 120°
2026-05-06 22:52 40.77169 -73.85864 10 ft 11 kts 118°
2026-05-06 22:52 40.77161 -73.85788 10 ft 7 kts 53°
2026-05-06 22:52 40.77198 -73.85757 12 ft 6 kts
2026-05-06 22:53 40.77265 -73.85837 15 ft 38 kts 297°
2026-05-06 22:53 40.77492 -73.86313 12 ft 113 kts 301°
2026-05-06 22:53 40.78012 -73.87413 68 ft 169 kts 298°
2026-05-06 22:53 40.78690 -73.88785 966 ft 190 kts 303°
2026-05-06 22:54 40.79553 -73.89646 1888 ft 218 kts 322°
2026-05-06 22:54 40.81115 -73.90289 3190 ft 248 kts 343°
2026-05-06 22:54 40.82862 -73.90603 4722 ft 257 kts 346°
2026-05-06 22:54 40.84659 -73.90921 6231 ft 264 kts 344°
2026-05-06 22:55 40.86430 -73.91516 7524 ft 273 kts 333°
2026-05-06 22:55 40.88124 -73.92668 8873 ft 266 kts 315°
2026-05-06 22:55 40.89436 -73.94323 10198 ft 262 kts 301°
2026-05-06 22:55 40.90621 -73.96249 10441 ft 281 kts 297°
2026-05-06 22:56 40.91379 -73.98644 10484 ft 290 kts 270°
2026-05-06 22:56 40.91064 -74.01224 10950 ft 285 kts 242°
2026-05-06 22:56 40.90107 -74.03494 11746 ft 282 kts 240°
2026-05-06 22:56 40.89244 -74.05815 12572 ft 282 kts 242°
2026-05-06 22:57 40.88389 -74.08169 13328 ft 285 kts 243°
2026-05-06 22:57 40.87517 -74.10541 13998 ft 288 kts 242°
2026-05-06 22:57 40.86645 -74.12929 14573 ft 294 kts 242°
2026-05-06 22:57 40.85742 -74.15398 15271 ft 297 kts 242°
2026-05-06 22:58 40.84644 -74.17710 15998 ft 298 kts 231°
2026-05-06 22:58 40.83395 -74.19920 16662 ft 303 kts 236°
2026-05-06 22:58 40.82252 -74.22284 17332 ft 307 kts 238°
2026-05-06 22:58 40.81111 -74.24680 18013 ft 311 kts 237°
2026-05-06 22:59 40.79919 -74.27033 18651 ft 315 kts 236°
2026-05-06 22:59 40.78662 -74.29396 19334 ft 317 kts 235°
2026-05-06 22:59 40.77375 -74.31778 20013 ft 320 kts 235°
2026-05-06 22:59 40.76101 -74.34145 20709 ft 323 kts 236°
2026-05-06 23:00 40.74804 -74.36575 21421 ft 326 kts 237°
2026-05-06 23:00 40.73496 -74.39035 22067 ft 330 kts 237°
2026-05-06 23:00 40.72169 -74.41526 22696 ft 333 kts 237°
2026-05-06 23:00 40.70827 -74.44039 23261 ft 337 kts 238°
2026-05-06 23:01 40.69470 -74.46571 23720 ft 342 kts 238°
2026-05-06 23:01 40.68086 -74.49151 24027 ft 350 kts 238°
2026-05-06 23:01 40.66642 -74.51842 23949 ft 370 kts 237°
2026-05-06 23:01 40.65119 -74.54670 23845 ft 379 kts 237°
2026-05-06 23:02 40.63606 -74.57464 23871 ft 382 kts 237°
2026-05-06 23:02 40.62035 -74.60361 23881 ft 383 kts 237°
2026-05-06 23:02 40.60511 -74.63178 23882 ft 382 kts 237°
2026-05-06 23:02 40.58963 -74.66039 23877 ft 382 kts 237°
2026-05-06 23:03 40.57421 -74.68891 23873 ft 383 kts 237°
2026-05-06 23:03 40.55878 -74.71737 23882 ft 383 kts 237°
2026-05-06 23:03 40.54327 -74.74582 23859 ft 383 kts 237°
2026-05-06 23:03 40.52778 -74.77427 23885 ft 384 kts 237°
2026-05-06 23:04 40.51228 -74.80286 23867 ft 384 kts 237°
2026-05-06 23:04 40.49687 -74.83124 23877 ft 384 kts 237°
2026-05-06 23:04 40.48129 -74.85994 23869 ft 384 kts 237°
2026-05-06 23:04 40.46578 -74.88843 23884 ft 384 kts 237°
2026-05-06 23:05 40.45025 -74.91691 23885 ft 384 kts 237°
2026-05-06 23:05 40.43461 -74.94556 23888 ft 384 kts 237°
2026-05-06 23:05 40.41876 -74.97369 23890 ft 386 kts 233°
2026-05-06 23:05 40.40059 -74.99977 23895 ft 387 kts 231°
2026-05-06 23:06 40.38231 -75.02583 23897 ft 387 kts 231°
2026-05-06 23:06 40.36403 -75.05174 23884 ft 388 kts 231°
2026-05-06 23:06 40.34568 -75.07755 23903 ft 390 kts 231°
2026-05-06 23:06 40.32708 -75.10355 23896 ft 389 kts 230°
2026-05-06 23:07 40.30861 -75.12936 23898 ft 389 kts 230°
2026-05-06 23:07 40.29009 -75.15528 23901 ft 389 kts 230°
2026-05-06 23:07 40.27159 -75.18116 23896 ft 389 kts 230°
2026-05-06 23:07 40.25305 -75.20710 23896 ft 389 kts 230°
2026-05-06 23:08 40.23461 -75.23284 23905 ft 389 kts 230°
2026-05-06 23:08 40.21627 -75.25842 23911 ft 389 kts 230°
2026-05-06 23:08 40.19768 -75.28433 23909 ft 389 kts 230°
2026-05-06 23:08 40.17919 -75.31011 23905 ft 390 kts 230°
2026-05-06 23:09 40.16151 -75.33473 23910 ft 391 kts 230°
2026-05-06 23:09 40.14298 -75.36048 23906 ft 390 kts 230°
2026-05-06 23:09 40.12431 -75.38640 23911 ft 390 kts 230°
2026-05-06 23:09 40.10565 -75.41224 23904 ft 390 kts 230°
2026-05-06 23:10 40.08691 -75.43814 23908 ft 389 kts 230°
2026-05-06 23:10 40.06841 -75.46371 23915 ft 389 kts 230°
2026-05-06 23:10 40.04967 -75.48959 23913 ft 390 kts 230°
2026-05-06 23:10 40.03107 -75.51525 23916 ft 390 kts 230°
2026-05-06 23:11 40.01250 -75.54086 23917 ft 390 kts 230°
2026-05-06 23:11 39.99402 -75.56631 23903 ft 387 kts 230°
2026-05-06 23:11 39.97566 -75.59158 23925 ft 387 kts 230°
2026-05-06 23:11 39.95701 -75.61726 23921 ft 387 kts 230°
2026-05-06 23:12 39.93849 -75.64273 23917 ft 387 kts 230°
2026-05-06 23:12 39.92020 -75.66841 23913 ft 386 kts 234°
2026-05-06 23:12 39.90477 -75.69691 23923 ft 385 kts 238°
2026-05-06 23:12 39.88963 -75.72561 23887 ft 384 kts 238°
2026-05-06 23:13 39.87485 -75.75383 23692 ft 368 kts 238°
2026-05-06 23:13 39.86090 -75.78053 23756 ft 345 kts 238°
2026-05-06 23:13 39.84747 -75.80628 23733 ft 348 kts 239°
2026-05-06 23:13 39.83382 -75.83256 23392 ft 349 kts 238°
2026-05-06 23:14 39.82026 -75.85861 22987 ft 348 kts 238°
2026-05-06 23:14 39.80669 -75.88460 22503 ft 343 kts 238°
2026-05-06 23:14 39.79337 -75.91004 22023 ft 340 kts 238°
2026-05-06 23:14 39.78021 -75.93515 21631 ft 336 kts 238°
2026-05-06 23:15 39.76724 -75.95991 21133 ft 335 kts 238°
2026-05-06 23:15 39.75401 -75.98511 20707 ft 332 kts 237°
2026-05-06 23:15 39.74117 -76.00956 20278 ft 329 kts 237°
2026-05-06 23:15 39.72831 -76.03402 19821 ft 327 kts 237°
2026-05-06 23:16 39.71556 -76.05828 19427 ft 324 kts 237°
2026-05-06 23:16 39.70282 -76.08250 18967 ft 322 kts 237°
2026-05-06 23:16 39.69023 -76.10642 18554 ft 319 kts 237°
2026-05-06 23:16 39.67773 -76.13017 18127 ft 317 kts 236°
2026-05-06 23:17 39.67688 -76.13179 18104 ft 316 kts 236°
2026-05-06 23:17 39.66482 -76.15467 17864 ft 315 kts 236°
2026-05-06 23:17 39.65243 -76.17812 17424 ft 313 kts 236°
2026-05-06 23:17 39.64049 -76.20075 17012 ft 311 kts 236°
2026-05-06 23:18 39.62827 -76.22386 16610 ft 309 kts 236°
2026-05-06 23:18 39.61616 -76.24676 16204 ft 306 kts 235°
2026-05-06 23:18 39.60413 -76.26948 15793 ft 305 kts 235°
2026-05-06 23:18 39.59192 -76.29131 15387 ft 302 kts 228°
2026-05-06 23:19 39.57574 -76.30861 15011 ft 303 kts 216°
2026-05-06 23:19 39.55858 -76.32414 14579 ft 297 kts 217°
2026-05-06 23:19 39.54217 -76.33956 14201 ft 288 kts 217°
2026-05-06 23:19 39.52605 -76.35437 13827 ft 280 kts 216°
2026-05-06 23:20 39.51013 -76.36845 13438 ft 273 kts 215°
2026-05-06 23:20 39.49455 -76.38187 13108 ft 264 kts 215°
2026-05-06 23:20 39.48449 -76.39045 12841 ft 261 kts 215°
2026-05-06 23:20 39.46947 -76.40333 12548 ft 256 kts 215°
2026-05-06 23:21 39.45462 -76.41618 12269 ft 258 kts 215°
2026-05-06 23:21 39.43962 -76.42924 12108 ft 262 kts 215°
2026-05-06 23:21 39.42438 -76.44252 11828 ft 264 kts 215°
2026-05-06 23:21 39.40926 -76.45564 11739 ft 259 kts 214°
2026-05-06 23:22 39.39429 -76.46862 11658 ft 261 kts 214°
2026-05-06 23:22 39.37924 -76.48166 11534 ft 261 kts 214°
2026-05-06 23:22 39.36408 -76.49478 11463 ft 261 kts 214°
2026-05-06 23:22 39.34906 -76.50778 11368 ft 260 kts 214°
2026-05-06 23:23 39.33404 -76.52079 11246 ft 258 kts 214°
2026-05-06 23:23 39.31916 -76.53366 11133 ft 257 kts 214°
2026-05-06 23:23 39.30427 -76.54652 11025 ft 257 kts 214°
2026-05-06 23:23 39.28938 -76.55935 10917 ft 257 kts 214°
2026-05-06 23:24 39.27457 -76.57212 10790 ft 256 kts 214°
2026-05-06 23:24 39.25969 -76.58495 10678 ft 256 kts 214°
2026-05-06 23:24 39.24488 -76.59772 10567 ft 257 kts 214°
2026-05-06 23:24 39.23004 -76.61051 10463 ft 258 kts 214°
2026-05-06 23:25 39.21515 -76.62334 10352 ft 255 kts 214°
2026-05-06 23:25 39.20038 -76.63605 10253 ft 256 kts 214°
2026-05-06 23:25 39.18553 -76.64881 10069 ft 257 kts 214°
2026-05-06 23:25 39.17079 -76.66149 10020 ft 252 kts 214°
2026-05-06 23:26 39.15690 -76.67474 10087 ft 254 kts 220°
2026-05-06 23:26 39.14391 -76.69056 10092 ft 256 kts 225°
2026-05-06 23:26 39.13155 -76.70714 10029 ft 256 kts 225°
2026-05-06 23:26 39.11901 -76.72336 10007 ft 255 kts 223°
2026-05-06 23:27 39.10602 -76.73912 9910 ft 258 kts 222°
2026-05-06 23:27 39.09275 -76.75457 9626 ft 257 kts 221°
2026-05-06 23:27 39.07944 -76.76989 9342 ft 254 kts 221°
2026-05-06 23:27 39.06637 -76.78509 9049 ft 252 kts 222°
2026-05-06 23:28 39.05352 -76.80028 8776 ft 251 kts 222°
2026-05-06 23:28 39.04067 -76.81559 8465 ft 251 kts 223°
2026-05-06 23:28 39.02791 -76.83076 8202 ft 250 kts 223°
2026-05-06 23:28 39.01518 -76.84583 7914 ft 250 kts 223°
2026-05-06 23:29 39.00745 -76.85669 7755 ft 249 kts 235°
2026-05-06 23:30 39.00650 -76.85858 7728 ft 249 kts 238°
2026-05-06 23:30 39.00229 -76.87099 7497 ft 252 kts 251°